DW0275 Weather Reports


time (UTC)temp
C
wind
direction
speed
KPH
gust
KPH
rain 1hr
cm
rain 24hr
cm
rain mn
cm
humidity
%
barometer
mb
20200803150824 31 131 0.0 8.0 0.00 0.13 0.00 79 1013.7
20200803150328 31 140 4.8 8.0 0.00 0.13 0.00 80 1013.8
20200803145834 30 152 3.2 8.0 0.00 0.13 0.00 81 1013.8
20200803145324 30 158 3.2 4.8 0.00 0.13 0.00 80 1013.8
20200803144830 30 141 1.6 6.4 0.00 0.13 0.00 80 1013.6
20200803144335 31 148 3.2 6.4 0.00 0.13 0.00 79 1013.6
20200803143821 31 170 1.6 6.4 0.00 0.13 0.00 81 1013.6
20200803143327 30 108 1.6 6.4 0.00 0.13 0.00 82 1013.5
20200803142833 30 109 3.2 6.4 0.00 0.13 0.00 81 1013.6
20200803142339 30 146 1.6 3.2 0.00 0.13 0.00 82 1013.6
20200803141824 30 134 0.0 3.2 0.00 0.13 0.00 83 1013.7
20200803141330 30 143 1.6 4.8 0.00 0.13 0.00 83 1013.8
20200803140836 30 129 0.0 1.6 0.00 0.13 0.00 85 1013.7
20200803140326 29 132 0.0 3.2 0.00 0.13 0.00 84 1013.5
20200803135832 29 142 1.6 3.2 0.00 0.13 0.00 84 1013.6
20200803135338 29 145 0.0 3.2 0.00 0.13 0.00 85 1013.5
20200803134823 29 143 0.0 1.6 0.00 0.13 0.00 88 1013.6
20200803134329 28 145 0.0 1.6 0.00 0.13 0.00 88 1013.7
20200803133835 28 145 0.0 1.6 0.00 0.13 0.00 89 1013.7
20200803133320 28 207 0.0 0.0 0.00 0.13 0.00 90 1013.7
20200803132839 28 213 0.0 0.0 0.00 0.13 0.00 91 1013.7
20200803132324 27 213 0.0 0.0 0.00 0.13 0.00 92 1013.6
20200803131830 27 213 0.0 0.0 0.00 0.13 0.00 92 1013.6
20200803131320 27 213 0.0 0.0 0.00 0.13 0.00 93 1013.5
20200803130825 27 213 0.0 0.0 0.00 0.13 0.00 93 1013.6
20200803130331 27 214 0.0 1.6 0.00 0.13 0.00 93 1013.5
20200803125837 27 214 0.0 1.6 0.00 0.25 0.00 93 1013.5
20200803125323 27 213 0.0 1.6 0.00 0.25 0.00 93 1013.5
20200803124827 27 146 0.0 0.0 0.00 0.25 0.00 93 1013.5
20200803124333 27 146 0.0 1.6 0.00 0.25 0.00 94 1013.3
20200803123837 27 146 0.0 1.6 0.00 0.25 0.00 94 1013.2
20200803123323 27 150 0.0 0.0 0.00 0.25 0.00 94 1013.1
20200803122828 27 150 0.0 0.0 0.00 0.25 0.00 94 1013.1
20200803122334 27 150 0.0 0.0 0.00 0.25 0.00 95 1013.1
20200803121823 26 150 0.0 0.0 0.00 0.25 0.00 95 1013.1
20200803121329 26 150 0.0 1.6 0.00 0.25 0.00 95 1013.1
20200803120835 26 148 0.0 1.6 0.00 0.25 0.00 96 1013.0
20200803120321 26 148 0.0 1.6 0.00 0.25 0.00 96 1012.9
20200803115825 26 164 0.0 0.0 0.00 0.33 0.00 97 1012.9
20200803115331 26 165 0.0 0.0 0.00 0.33 0.00 97 1012.8
20200803114838 26 165 0.0 0.0 0.00 0.33 0.00 97 1012.7
20200803114323 26 165 0.0 0.0 0.00 0.33 0.00 97 1012.7
20200803113829 26 165 0.0 0.0 0.00 0.33 0.00 97 1012.6
20200803113335 26 165 0.0 0.0 0.00 0.33 0.00 97 1012.5
20200803112825 25 165 0.0 0.0 0.00 0.33 0.00 97 1012.4
20200803112331 25 165 0.0 0.0 0.00 0.33 0.00 97 1012.3
20200803111837 25 164 0.0 0.0 0.00 0.33 0.00 97 1012.2
20200803111321 25 165 0.0 0.0 0.00 0.33 0.00 97 1012.1
20200803110828 25 165 0.0 0.0 0.00 0.33 0.00 97 1012.1
20200803110333 25 165 0.0 0.0 0.00 0.33 0.00 97 1012.0
20200803105839 25 165 0.0 0.0 0.00 0.33 0.00 96 1011.9
20200803105324 25 165 0.0 0.0 0.00 0.33 0.00 97 1011.7
20200803104829 25 165 0.0 0.0 0.00 0.33 0.00 97 1011.8
20200803104336 25 165 0.0 0.0 0.00 0.33 0.00 97 1011.8
20200803103824 25 165 0.0 0.0 0.00 0.33 0.00 96 1011.8
20200803103331 25 165 0.0 0.0 0.00 0.33 0.00 96 1011.8
20200803102836 25 165 0.0 0.0 0.00 0.33 0.00 96 1011.8
20200803102322 25 165 0.0 0.0 0.00 0.33 0.00 96 1011.8
20200803101829 25 165 0.0 0.0 0.00 0.33 0.00 96 1011.8
20200803101335 25 165 0.0 0.0 0.00 0.33 0.00 96 1011.8
20200803100821 25 165 0.0 0.0 0.00 0.33 0.00 96 1011.7
20200803100325 25 165 0.0 0.0 0.00 0.33 0.00 96 1011.7
20200803095831 25 165 0.0 0.0 0.00 0.38 0.00 95 1011.6
20200803095319 25 165 0.0 0.0 0.00 0.38 0.00 95 1011.4
20200803094823 25 165 0.0 0.0 0.00 0.38 0.00 95 1011.4
20200803094329 25 165 0.0 0.0 0.00 0.38 0.00 95 1011.4
20200803093834 25 165 0.0 0.0 0.00 0.38 0.00 95 1011.3
20200803093321 25 165 0.0 0.0 0.00 0.38 0.00 95 1011.3
20200803092826 25 165 0.0 0.0 0.00 0.38 0.00 95 1011.1
20200803092332 25 165 0.0 0.0 0.00 0.38 0.00 94 1011.2
20200803091838 25 164 0.0 0.0 0.00 0.38 0.00 94 1011.3
20200803091322 25 165 0.0 0.0 0.00 0.38 0.00 94 1011.2
20200803090828 25 165 0.0 0.0 0.00 0.38 0.00 94 1011.2
20200803090334 25 165 0.0 0.0 0.00 0.38 0.00 94 1011.2
20200803085822 25 165 0.0 0.0 0.00 0.41 0.00 94 1011.1
20200803085329 25 165 0.0 0.0 0.00 0.41 0.00 94 1010.9
20200803084834 25 165 0.0 0.0 0.00 0.41 0.00 93 1011.0
20200803084320 25 165 0.0 0.0 0.00 0.41 0.00 93 1010.9
20200803083824 25 164 0.0 0.0 0.00 0.41 0.00 93 1010.8
20200803083330 25 160 0.0 0.0 0.00 0.41 0.00 93 1010.8
20200803082835 25 160 0.0 0.0 0.00 0.41 0.00 93 1010.8
20200803082320 26 160 0.0 0.0 0.00 0.41 0.00 93 1010.7
20200803081826 26 160 0.0 1.6 0.00 0.41 0.00 93 1010.7
20200803081332 26 160 0.0 1.6 0.00 0.41 0.00 93 1010.7
20200803080822 26 160 0.0 0.0 0.00 0.41 0.00 93 1010.8
20200803080328 26 160 0.0 0.0 0.00 0.41 0.00 93 1010.9
20200803075833 26 160 0.0 0.0 0.00 0.41 0.00 93 1010.8
20200803075319 26 160 0.0 0.0 0.00 0.41 0.00 93 1010.8
20200803074820 25 160 0.0 0.0 0.00 0.41 0.00 93 1010.9
20200803074326 26 160 0.0 0.0 0.00 0.41 0.00 93 1010.9
20200803073832 25 160 0.0 0.0 0.00 0.41 0.00 94 1010.9
20200803073338 25 160 0.0 0.0 0.00 0.41 0.00 94 1010.9
20200803072825 25 160 0.0 0.0 0.00 0.41 0.00 94 1010.8
20200803072330 25 149 0.0 0.0 0.00 0.41 0.00 94 1010.9
20200803071821 25 149 0.0 0.0 0.00 0.41 0.00 94 1011.0
20200803071326 25 149 0.0 0.0 0.00 0.41 0.00 94 1011.0
20200803070832 25 149 0.0 0.0 0.00 0.41 0.00 94 1011.0
20200803070338 25 149 0.0 0.0 0.00 0.41 0.00 94 1011.2
20200803065823 25 149 0.0 0.0 0.00 0.41 0.00 94 1011.3
20200803065328 25 143 0.0 0.0 0.00 0.41 0.00 93 1011.2
20200803064834 25 143 0.0 0.0 0.00 0.41 0.00 93 1011.2
20200803064321 25 143 0.0 0.0 0.00 0.41 0.00 93 1011.2
20200803063826 25 143 0.0 0.0 0.00 0.41 0.00 93 1011.3
20200803063332 25 143 0.0 0.0 0.00 0.41 0.00 93 1011.4
20200803062822 25 143 0.0 1.6 0.00 0.41 0.00 92 1011.4
20200803062328 25 143 0.0 1.6 0.00 0.41 0.00 92 1011.4
20200803061834 25 143 0.0 1.6 0.00 0.41 0.00 92 1011.4
20200803061321 25 143 0.0 1.6 0.00 0.41 0.00 92 1011.7
20200803060824 25 143 0.0 0.0 0.00 0.41 0.00 92 1011.8
20200803060329 26 143 0.0 0.0 0.00 0.41 0.00 92 1011.8
20200803055835 26 143 0.0 1.6 0.00 0.58 0.00 92 1011.8
20200803055320 26 143 0.0 1.6 0.00 0.58 0.00 92 1011.6
20200803054826 26 144 0.0 1.6 0.00 0.58 0.00 92 1011.7
20200803054331 26 145 0.0 1.6 0.00 0.58 0.00 92 1011.7
20200803053820 26 149 0.0 1.6 0.00 0.58 0.00 92 1011.5
20200803053326 26 141 1.6 1.6 0.00 0.58 0.00 92 1011.4
20200803052831 26 135 0.0 1.6 0.00 0.58 0.00 92 1011.4
20200803052336 26 136 0.0 1.6 0.00 0.58 0.00 92 1011.3
20200803051822 26 155 0.0 3.2 0.00 0.58 0.00 92 1011.3
20200803051328 26 155 0.0 3.2 0.00 0.58 0.00 92 1011.3
20200803050833 26 127 1.6 3.2 0.00 0.58 0.00 92 1011.4
20200803050319 26 158 1.6 1.6 0.00 0.58 0.00 92 1011.6
20200803045824 26 150 0.0 1.6 0.00 0.58 0.00 92 1011.6
20200803045330 26 151 0.0 1.6 0.00 0.58 0.00 92 1011.5
20200803044820 26 148 0.0 1.6 0.00 0.58 0.00 92 1011.4
20200803044326 26 134 0.0 3.2 0.00 0.58 0.00 92 1011.3
20200803043831 26 139 0.0 3.2 0.00 0.58 0.00 92 1011.3
20200803043338 26 131 0.0 3.2 0.00 0.58 0.00 92 1011.3
20200803042819 26 156 1.6 3.2 0.00 0.58 0.00 91 1011.3
20200803042325 26 153 1.6 3.2 0.00 0.58 0.00 91 1011.3
20200803041830 26 148 1.6 1.6 0.00 0.58 0.00 91 1011.2
20200803041336 26 149 0.0 1.6 0.00 0.58 0.00 91 1011.2
20200803040822 26 149 0.0 1.6 0.00 0.58 0.00 91 1011.1
20200803040326 26 148 0.0 1.6 0.00 0.58 0.00 91 1010.9
20200803035836 26 153 0.0 1.6 0.00 0.58 0.58 90 1011.0
20200803035321 26 153 0.0 1.6 0.00 0.58 0.58 90 1010.9
20200803034825 26 146 0.0 1.6 0.00 0.58 0.58 90 1010.7
20200803034331 26 186 0.0 3.2 0.00 0.58 0.58 90 1010.7
20200803033837 26 193 0.0 3.2 0.00 0.58 0.58 90 1010.6
20200803033323 26 131 0.0 1.6 0.00 0.58 0.58 89 1010.5
20200803032829 26 136 0.0 3.2 0.00 0.58 0.58 89 1010.4
20200803032334 26 147 0.0 3.2 0.00 0.58 0.58 89 1010.5
20200803031819 26 262 0.0 1.6 0.00 0.58 0.58 89 1010.5
20200803031323 26 275 0.0 3.2 0.00 0.58 0.58 89 1010.3
20200803030833 26 193 0.0 4.8 0.00 0.58 0.58 89 1010.3
20200803030337 26 282 1.6 4.8 0.00 0.58 0.58 89 1010.3
20200803025823 26 302 0.0 3.2 0.00 0.61 0.58 89 1010.3
20200803025327 26 260 0.0 3.2 0.00 0.61 0.58 89 1010.4
20200803024832 26 345 0.0 3.2 0.00 0.61 0.58 89 1010.4
20200803024336 26 288 0.0 4.8 0.00 0.61 0.58 89 1010.5
20200803023822 26 288 0.0 4.8 0.00 0.61 0.58 89 1010.4
20200803023326 26 8 0.0 3.2 0.00 0.61 0.58 89 1010.4
20200803022833 26 267 0.0 3.2 0.00 0.61 0.58 89 1010.3
20200803022337 26 318 0.0 4.8 0.00 0.61 0.58 89 1010.4
20200803021827 26 280 0.0 4.8 0.00 0.61 0.58 89 1010.4
20200803021333 26 250 0.0 1.6 0.00 0.61 0.58 89 1010.4
20200803020819 26 56 0.0 4.8 0.00 0.61 0.58 88 1010.3
20200803020326 26 58 1.6 4.8 0.00 0.61 0.58 89 1010.3
20200803015832 26 303 0.0 3.2 0.00 0.61 0.58 89 1010.3
20200803015337 26 278 0.0 3.2 0.00 0.61 0.58 88 1010.2
20200803014822 27 330 0.0 1.6 0.00 0.61 0.58 88 1009.9
20200803014327 27 283 0.0 4.8 0.00 0.61 0.58 88 1009.8
20200803013833 27 248 0.0 4.8 0.00 0.61 0.58 88 1009.9
20200803013318 27 330 0.0 4.8 0.00 0.61 0.58 87 1009.8
20200803012828 27 330 1.6 4.8 0.00 0.61 0.58 87 1009.8
20200803012333 27 157 0.0 3.2 0.00 0.61 0.58 87 1009.9
20200803011837 27 87 0.0 3.2 0.00 0.61 0.58 87 1009.7
20200803011323 27 303 1.6 4.8 0.00 0.61 0.58 87 1009.6
20200803010828 27 262 1.6 4.8 0.00 0.61 0.58 87 1009.6
20200803010335 27 267 1.6 8.0 0.00 0.61 0.58 87 1009.5
20200803005819 27 248 1.6 8.0 0.00 0.61 0.58 87 1009.4
20200803005324 27 150 1.6 8.0 0.00 0.61 0.58 87 1009.4
20200803004826 27 252 1.6 8.0 0.00 0.61 0.58 87 1009.2
20200803004333 27 266 1.6 8.0 0.00 0.61 0.58 87 1009.1
20200803003823 27 271 0.0 8.0 0.00 0.61 0.58 86 1009.1
20200803003328 27 136 1.6 6.4 0.00 0.61 0.58 87 1009.2
20200803002834 27 246 0.0 6.4 0.00 0.61 0.58 87 1009.1
20200803002337 27 307 1.6 6.4 0.00 0.61 0.58 87 1009.1
20200803001836 27 267 1.6 6.4 0.00 0.61 0.58 87 1009.1
20200803001323 27 321 0.0 8.0 0.00 0.61 0.58 87 1009.1
20200803000829 27 65 1.6 8.0 0.00 0.61 0.58 87 1009.0
20200803000334 28 37 1.6 8.0 0.00 0.61 0.58 86 1009.0
20200802235840 28 324 1.6 6.4 0.00 0.61 0.58 85 1008.9
20200802235326 28 271 1.6 6.4 0.00 0.61 0.58 85 1008.8
20200802234831 28 341 1.6 8.0 0.00 0.61 0.58 85 1008.8
20200802234321 28 184 1.6 8.0 0.00 0.61 0.58 84 1008.7
20200802233825 28 124 1.6 9.7 0.00 0.61 0.58 84 1008.6
20200802233331 28 240 1.6 11.3 0.00 0.61 0.58 83 1008.4
20200802232837 28 155 3.2 8.0 0.00 0.61 0.58 84 1008.3
20200802232321 28 289 0.0 8.0 0.00 0.61 0.58 84 1008.2
20200802231826 28 235 1.6 8.0 0.00 0.61 0.58 84 1008.1
20200802231329 28 276 3.2 14.5 0.00 0.61 0.58 84 1008.1
20200802230835 28 221 1.6 14.5 0.00 0.61 0.58 83 1008.0
20200802230340 28 228 3.2 11.3 0.00 0.61 0.58 83 1007.8
20200802225826 28 290 4.8 11.3 0.00 0.66 0.58 83 1007.6
20200802225335 28 302 3.2 11.3 0.00 0.66 0.58 83 1007.6
20200802224840 29 295 3.2 12.9 0.00 0.66 0.58 82 1007.7
20200802224326 29 82 3.2 12.9 0.00 0.66 0.58 82 1007.6
20200802223832 29 116 4.8 12.9 0.00 0.66 0.58 82 1007.4
20200802223338 29 122 3.2 11.3 0.00 0.66 0.58 83 1007.4
20200802222824 29 286 3.2 11.3 0.00 0.66 0.58 82 1007.4
20200802222330 29 104 3.2 16.1 0.00 0.66 0.58 82 1007.3
20200802221835 29 44 4.8 16.1 0.00 0.66 0.58 81 1007.1
20200802221340 30 292 3.2 9.7 0.00 0.66 0.58 81 1006.9
20200802220825 30 148 3.2 9.7 0.00 0.66 0.58 81 1007.0
20200802220334 30 30 3.2 14.5 0.00 0.66 0.58 81 1007.0
20200802215840 30 271 3.2 17.7 0.00 1.02 0.58 82 1007.0
20200802215325 30 320 1.6 17.7 0.00 1.02 0.58 82 1006.8
20200802214831 30 86 3.2 9.7 0.00 1.02 0.58 83 1006.7
20200802214337 29 262 3.2 14.5 0.00 1.02 0.58 83 1006.8
20200802213823 29 216 3.2 14.5 0.00 1.02 0.58 83 1006.7
20200802213328 29 57 3.2 11.3 0.00 1.02 0.58 83 1006.9
20200802212834 29 128 4.8 11.3 0.00 1.02 0.58 83 1006.9
20200802212340 29 244 4.8 17.7 0.00 1.02 0.58 83 1006.9
20200802211826 29 295 4.8 17.7 0.00 1.02 0.58 84 1006.9
20200802211335 29 99 4.8 12.9 0.00 1.02 0.58 86 1006.8
20200802210821 29 151 3.2 11.3 0.00 1.02 0.58 86 1007.1
20200802210327 29 100 3.2 16.1 0.00 1.02 0.58 85 1007.0
20200802205832 30 109 4.8 16.1 0.00 1.09 0.58 83 1007.1
20200802205338 30 276 1.6 14.5 0.00 1.09 0.58 83 1006.9
20200802204825 30 213 1.6 16.1 0.00 1.09 0.58 83 1006.9
20200802204330 30 118 4.8 16.1 0.00 1.09 0.58 83 1006.9
20200802203835 30 332 3.2 16.1 0.03 1.09 0.58 84 1006.9
20200802203321 30 123 3.2 11.3 0.03 1.09 0.58 86 1006.8
20200802202827 29 300 3.2 12.9 0.03 1.09 0.58 86 1006.9
20200802202336 29 139 4.8 17.7 0.03 1.09 0.58 86 1006.9
20200802201822 29 129 1.6 16.1 0.03 1.09 0.58 87 1006.9
20200802201328 28 293 4.8 12.9 0.03 1.09 0.58 87 1006.8
20200802200834 28 295 4.8 12.9 0.03 1.09 0.58 88 1006.8
20200802200340 28 301 6.4 12.9 0.08 1.09 0.58 89 1006.8
20200802195826 28 7 3.2 16.1 0.08 1.12 0.58 91 1007.0
20200802195331 28 302 4.8 16.1 0.08 1.12 0.58 91 1007.0
20200802194837 28 89 3.2 12.9 0.08 1.12 0.58 90 1006.8
20200802194322 28 312 3.2 12.9 0.08 1.12 0.58 88 1006.9
20200802193828 29 188 3.2 16.1 0.05 1.09 0.56 85 1006.7
20200802193338 29 281 4.8 16.1 0.05 1.09 0.56 86 1006.6
20200802192823 29 355 3.2 20.9 0.05 1.09 0.56 87 1006.7
20200802192328 28 234 6.4 20.9 0.05 1.09 0.56 87 1006.7
20200802191833 28 287 4.8 11.3 0.05 1.09 0.56 89 1006.7
20200802191339 28 200 3.2 11.3 0.05 1.09 0.56 91 1006.8
20200802190825 28 333 1.6 11.3 0.05 1.09 0.56 88 1006.9
20200802190330 29 123 3.2 11.3 0.00 1.04 0.51 87 1006.8
20200802185836 29 294 4.8 14.5 0.00 1.04 0.51 86 1006.7
20200802185321 29 312 4.8 19.3 0.00 1.04 0.51 87 1006.6
20200802184827 28 141 4.8 19.3 0.00 1.04 0.51 88 1006.7
20200802184337 28 30 4.8 12.9 0.00 1.04 0.51 89 1006.7
20200802183823 28 282 3.2 14.5 0.00 1.04 0.51 89 1006.8
20200802183329 29 155 4.8 12.9 0.00 1.04 0.51 86 1006.7
20200802182833 29 2 4.8 12.9 0.00 1.04 0.51 86 1006.7
20200802182338 29 87 3.2 11.3 0.03 1.04 0.51 87 1006.8
20200802181824 29 322 3.2 11.3 0.03 1.04 0.51 87 1006.9
20200802181330 28 23 4.8 16.1 0.03 1.04 0.51 88 1006.9
20200802180836 28 253 6.4 16.1 0.03 1.04 0.51 88 1006.9
20200802180322 28 136 3.2 11.3 0.03 1.04 0.51 88 1006.8
20200802175828 28 38 3.2 11.3 0.03 1.04 0.51 89 1006.8
20200802175338 28 293 3.2 12.9 0.03 1.04 0.51 90 1006.8
20200802174823 28 299 6.4 12.9 0.03 1.04 0.51 90 1006.8
20200802174330 28 78 4.8 12.9 0.03 1.04 0.51 93 1006.8
20200802173835 28 25 3.2 16.1 0.03 1.04 0.51 94 1006.8
20200802173320 27 102 3.2 12.9 0.03 1.04 0.51 94 1006.8
20200802172826 27 193 6.4 12.9 0.03 1.04 0.51 91 1006.8
20200802172332 28 301 4.8 14.5 0.00 1.02 0.48 91 1006.9
20200802171838 27 304 3.2 14.5 0.00 1.02 0.48 92 1006.9
20200802171322 27 285 4.8 14.5 0.00 1.02 0.48 92 1007.0
20200802170826 27 255 3.2 14.5 0.00 1.02 0.48 92 1007.1
20200802170325 27 13 3.2 11.3 0.00 1.02 0.48 92 1007.0
20200802165831 27 307 4.8 12.9 0.00 1.02 0.48 92 1007.2
20200802165340 27 146 3.2 12.9 0.03 1.02 0.48 93 1007.1
20200802164825 27 108 4.8 14.5 0.03 1.02 0.48 93 1006.9
20200802164329 27 172 3.2 14.5 0.03 1.02 0.48 94 1007.0
20200802163835 27 4 3.2 12.9 0.03 1.02 0.48 94 1006.9
20200802163320 27 139 4.8 12.9 0.03 1.02 0.48 95 1006.9
20200802162826 27 340 1.6 11.3 0.03 1.02 0.48 96 1006.6
20200802162332 27 149 3.2 11.3 0.03 1.02 0.48 96 1006.6
20200802161838 27 157 3.2 11.3 0.03 1.02 0.48 96 1006.8
20200802161323 26 77 3.2 9.7 0.03 1.02 0.48 96 1006.7
20200802160829 26 17 3.2 9.7 0.03 1.02 0.48 95 1006.8
20200802160335 26 330 3.2 9.7 0.03 1.02 0.48 94 1006.9
20200802155824 27 218 3.2 9.7 0.00 0.99 0.46 94 1006.8
20200802155330 27 103 3.2 9.7 0.00 0.99 0.46 93 1006.9
20200802154835 27 121 3.2 16.1 0.00 0.99 0.46 93 1006.5
20200802154321 27 254 1.6 8.0 0.00 0.99 0.46 93 1006.5
20200802153826 27 316 1.6 9.7 0.00 0.99 0.46 93 1006.4
20200802153332 27 298 1.6 9.7 0.00 0.99 0.46 94 1006.1
20200802152838 27 61 1.6 6.4 0.00 0.99 0.46 93 1006.0
20200802152324 27 323 3.2 9.7 0.00 0.99 0.46 94 1006.0
20200802151830 27 343 3.2 9.7 0.00 0.99 0.46 94 1005.9
20200802151320 27 136 3.2 9.7 0.00 0.99 0.46 94 1005.9